Temp
-9 -9 -9 -9 -9 -9 -9 -9 -9 -9 -9 -9 -9 -9 -9 -9 -9 -9 -9 -9 -10 -11 -12 -13 -14 -15 -15 -15 -15 -14 -14 -12 -10 -11 -11 -11 -11 -11 -11 -10 -9 -11 -8 -10 -9
-10 -10 -10 -9 -9 -9 -9 -9 -9 -9 -9 -9 -9 -9 -9 -9 -9 -10 -10 -10 -11 -12 -12 -13 -15 -16 -16 -16 -15 -15 -15 -13 -12 -12 -13 -12 -11 -11 -11 -10 -10 -9 -7 -9 -9
-11 -11 -10 -10 -10 -10 -10 -9 -9 -9 -9 -9 -9 -9 -10 -10 -10 -10 -10 -10 -11 -12 -12 -14 -15 -16 -16 -16 -15 -15 -14 -13 -12 -13 -14 -14 -14 -13 -11 -10 -8 -10 -9 -9 -9
-11 -11 -11 -11 -11 -11 -10 -10 -10 -9 -9 -9 -10 -10 -10 -10 -10 -11 -11 -11 -12 -12 -13 -14 -14 -16 -16 -16 -15 -16 -14 -13 -13 -14 -14 -14 -13 -12 -10 -10 -11 -12 -9 -10 -9
-11 -11 -11 -11 -11 -11 -11 -11 -10 -10 -10 -10 -10 -10 -10 -10 -10 -11 -11 -11 -12 -13 -13 -14 -15 -15 -16 -16 -15 -15 -14 -13 -13 -14 -13 -11 -11 -11 -11 -11 -11 -12 -12 -11 -10
-10 -11 -11 -11 -11 -11 -11 -11 -10 -10 -10 -10 -10 -10 -11 -11 -11 -11 -11 -12 -12 -13 -13 -15 -14 -15 -15 -17 -16 -16 -14 -13 -13 -12 -11 -11 -11 -10 -10 -10 -10 -10 -10 -11 -11
-10 -11 -11 -11 -11 -11 -11 -11 -11 -11 -10 -10 -10 -11 -11 -11 -12 -11 -12 -12 -12 -13 -13 -14 -14 -14 -15 -15 -16 -16 -14 -13 -12 -12 -12 -12 -11 -10 -10 -11 -11 -10 -10 -10 -10
-10 -10 -10 -10 -10 -10 -11 -11 -11 -11 -11 -11 -11 -11 -11 -12 -12 -12 -12 -12 -12 -13 -13 -14 -14 -14 -14 -14 -14 -14 -13 -12 -12 -13 -12 -12 -11 -11 -12 -11 -10 -10 -11 -11 -10
-10 -10 -10 -10 -10 -10 -10 -11 -11 -11 -11 -11 -11 -11 -12 -13 -13 -12 -12 -13 -12 -13 -13 -14 -14 -14 -14 -14 -14 -14 -13 -13 -13 -14 -12 -11 -11 -12 -12 -10 -10 -10 -11 -11 -11
-10 -10 -10 -10 -10 -10 -10 -10 -11 -11 -11 -11 -11 -11 -12 -13 -13 -13 -13 -13 -13 -13 -13 -14 -14 -14 -14 -14 -14 -14 -15 -14 -14 -14 -14 -13 -12 -12 -11 -11 -10 -10 -10 -10 -10
-11 -11 -10 -10 -10 -10 -10 -10 -11 -11 -11 -12 -12 -12 -12 -13 -14 -14 -13 -13 -13 -13 -13 -14 -14 -14 -14 -14 -15 -16 -15 -15 -14 -14 -15 -15 -12 -11 -11 -11 -11 -10 -11 -10 -10
-11 -11 -11 -11 -11 -11 -11 -11 -11 -11 -11 -12 -12 -12 -12 -13 -13 -13 -14 -14 -14 -14 -13 -13 -14 -14 -15 -16 -16 -16 -15 -15 -15 -15 -14 -13 -12 -12 -12 -11 -12 -11 -11 -11 -11
-11 -11 -11 -11 -11 -11 -11 -11 -11 -11 -11 -12 -12 -12 -12 -13 -13 -14 -14 -14 -15 -14 -14 -14 -16 -16 -15 -15 -15 -14 -14 -14 -15 -16 -16 -13 -12 -13 -13 -13 -12 -12 -12 -11 -12
-12 -12 -12 -12 -12 -12 -12 -12 -12 -12 -12 -11 -12 -13 -13 -13 -13 -14 -14 -14 -15 -16 -14 -14 -16 -16 -15 -15 -15 -15 -15 -15 -15 -14 -14 -15 -13 -13 -13 -13 -13 -13 -13 -13 -13
-12 -12 -13 -12 -13 -12 -12 -12 -12 -12 -13 -13 -12 -13 -14 -14 -14 -14 -14 -14 -15 -15 -16 -16 -16 -16 -17 -16 -17 -16 -17 -16 -14 -14 -14 -13 -13 -13 -14 -14 -15 -15 -13 -12 -11
-13 -13 -13 -13 -13 -13 -13 -13 -13 -13 -14 -14 -13 -13 -14 -14 -14 -14 -15 -15 -15 -15 -16 -17 -16 -16 -17 -17 -17 -15 -15 -15 -14 -14 -14 -13 -14 -14 -14 -14 -14 -14 -13 -12 -13
-13 -13 -13 -13 -13 -13 -13 -13 -13 -14 -14 -15 -14 -14 -14 -15 -16 -15 -14 -15 -15 -16 -16 -17 -16 -16 -16 -17 -16 -16 -15 -15 -16 -15 -14 -14 -14 -14 -14 -14 -14 -14 -14 -14 -15
-13 -14 -14 -14 -14 -14 -13 -13 -14 -15 -15 -14 -14 -15 -17 -17 -16 -17 -17 -16 -16 -16 -16 -16 -16 -16 -15 -16 -16 -16 -16 -16 -15 -15 -14 -14 -14 -15 -14 -14 -14 -14 -14 -14 -14
-14 -14 -14 -14 -14 -14 -14 -14 -15 -14 -14 -14 -14 -14 -16 -16 -16 -17 -17 -16 -16 -16 -16 -16 -15 -15 -16 -16 -16 -16 -16 -16 -16 -15 -15 -14 -14 -14 -15 -14 -14 -14 -14 -15 -16
-14 -14 -14 -14 -14 -14 -14 -14 -15 -14 -15 -14 -14 -14 -16 -16 -15 -16 -16 -15 -16 -16 -16 -16 -15 -16 -15 -16 -16 -16 -16 -16 -16 -16 -16 -16 -15 -16 -17 -17 -16 -14 -15 -15 -16
-15 -14 -14 -15 -15 -15 -15 -15 -15 -15 -15 -15 -15 -15 -15 -15 -15 -15 -15 -16 -15 -16 -16 -16 -15 -16 -16 -16 -16 -16 -16 -16 -16 -16 -16 -15 -15 -17 -17 -17 -15 -16 -16 -17 -17
-15 -15 -15 -15 -15 -15 -15 -15 -16 -15 -15 -15 -15 -15 -15 -15 -15 -15 -16 -16 -16 -16 -16 -16 -16 -16 -16 -16 -16 -16 -17 -17 -17 -16 -16 -15 -14 -16 -17 -17 -16 -16 -17 -16 -15
-16 -16 -15 -15 -16 -16 -16 -16 -16 -16 -15 -15 -15 -15 -15 -15 -15 -15 -15 -16 -16 -16 -16 -16 -16 -16 -16 -16 -16 -17 -17 -17 -17 -17 -15 -16 -15 -17 -18 -17 -18 -18 -15 -14 -14
-16 -16 -15 -16 -16 -16 -16 -16 -16 -16 -16 -16 -16 -15 -15 -15 -15 -15 -15 -16 -16 -16 -16 -17 -17 -17 -16 -16 -16 -17 -17 -17 -16 -16 -16 -16 -17 -18 -18 -18 -18 -14 -13 -14 -15
-17 -17 -16 -16 -16 -16 -17 -17 -17 -17 -16 -16 -16 -16 -16 -16 -16 -15 -16 -16 -16 -16 -17 -17 -17 -17 -16 -17 -17 -17 -16 -16 -16 -16 -16 -17 -18 -18 -17 -16 -13 -14 -14 -14 -15
-18 -17 -17 -16 -16 -16 -17 -17 -17 -17 -17 -17 -16 -16 -16 -16 -16 -16 -16 -16 -17 -18 -17 -17 -17 -17 -17 -17 -17 -17 -17 -17 -17 -17 -17 -17 -16 -16 -13 -15 -14 -14 -15 -15 -14
-17 -19 -17 -17 -16 -16 -16 -17 -17 -17 -17 -17 -17 -16 -16 -16 -16 -17 -17 -18 -18 -18 -18 -17 -17 -17 -17 -17 -17 -16 -17 -17 -17 -18 -16 -16 -15 -14 -15 -15 -15 -14 -14 -13 -13
Height
5796 5793 5790 5788 5785 5784 5781 5779 5779 5779 5779 5779 5779 5779 5778 5777 5775 5774 5773 5770 5767 5762 5757 5751 5743 5741 5741 5748 5756 5765 5769 5776 5790 5801 5808 5813 5816 5820 5822 5822 5827 5830 5839 5836 5828
5792 5789 5786 5784 5781 5778 5775 5773 5772 5772 5773 5772 5772 5772 5771 5771 5770 5769 5768 5764 5759 5755 5751 5744 5740 5738 5738 5745 5751 5757 5763 5772 5785 5794 5803 5807 5804 5810 5804 5815 5824 5825 5834 5833 5829
5788 5785 5782 5780 5777 5774 5771 5769 5767 5766 5766 5766 5766 5766 5766 5765 5764 5762 5761 5758 5753 5750 5745 5741 5738 5738 5740 5744 5748 5757 5762 5774 5782 5790 5798 5795 5794 5793 5795 5805 5820 5820 5821 5822 5825
5783 5781 5777 5774 5772 5769 5767 5765 5762 5761 5760 5760 5760 5760 5760 5760 5761 5757 5757 5754 5749 5745 5741 5739 5738 5740 5741 5743 5749 5752 5763 5768 5776 5787 5783 5786 5792 5791 5797 5805 5807 5806 5813 5817 5817
5777 5774 5771 5769 5766 5764 5762 5760 5757 5756 5755 5754 5754 5754 5754 5754 5755 5752 5752 5750 5746 5742 5739 5738 5738 5741 5743 5744 5748 5752 5758 5763 5770 5772 5774 5780 5787 5789 5792 5795 5796 5799 5805 5808 5812
5768 5765 5763 5762 5760 5759 5756 5754 5752 5750 5749 5748 5748 5748 5749 5749 5749 5747 5747 5745 5743 5740 5738 5737 5737 5740 5743 5747 5750 5752 5754 5759 5763 5768 5771 5776 5779 5783 5788 5787 5790 5793 5797 5802 5803
5763 5759 5757 5755 5754 5752 5752 5750 5748 5746 5744 5743 5742 5742 5743 5742 5742 5743 5742 5741 5740 5738 5737 5735 5735 5737 5742 5744 5747 5750 5752 5755 5759 5764 5767 5769 5774 5778 5780 5781 5783 5787 5790 5794 5797
5760 5756 5754 5752 5749 5747 5746 5745 5744 5743 5740 5738 5737 5737 5736 5737 5738 5738 5738 5737 5736 5735 5735 5735 5735 5736 5739 5743 5743 5746 5749 5752 5757 5760 5763 5765 5770 5773 5772 5775 5778 5781 5784 5786 5790
5759 5755 5753 5750 5747 5744 5743 5741 5740 5739 5737 5734 5732 5731 5731 5731 5733 5734 5734 5733 5733 5732 5732 5733 5733 5734 5736 5739 5743 5746 5749 5752 5756 5757 5758 5760 5764 5766 5766 5769 5773 5775 5777 5780 5783
5757 5754 5750 5747 5744 5742 5740 5737 5736 5735 5733 5729 5728 5728 5727 5726 5726 5729 5729 5729 5729 5729 5729 5730 5732 5733 5734 5737 5741 5746 5749 5752 5756 5757 5754 5755 5757 5761 5762 5763 5765 5768 5771 5772 5775
5754 5752 5748 5745 5743 5739 5737 5735 5734 5732 5728 5726 5725 5723 5722 5722 5721 5722 5724 5725 5726 5726 5726 5727 5729 5731 5734 5736 5740 5743 5746 5748 5756 5756 5752 5749 5750 5754 5756 5756 5759 5760 5762 5764 5766
5752 5748 5746 5742 5739 5736 5734 5731 5729 5727 5724 5722 5720 5719 5718 5717 5717 5718 5718 5721 5722 5723 5723 5725 5726 5730 5731 5734 5735 5735 5737 5740 5742 5743 5743 5744 5745 5747 5750 5752 5753 5754 5753 5755 5756
5750 5746 5742 5739 5735 5732 5730 5727 5725 5722 5720 5719 5716 5715 5714 5713 5712 5713 5714 5714 5716 5719 5719 5722 5725 5727 5727 5728 5729 5731 5733 5736 5737 5739 5737 5738 5741 5744 5745 5745 5745 5746 5746 5747 5748
5745 5742 5738 5734 5731 5727 5724 5722 5720 5718 5716 5716 5714 5712 5711 5709 5709 5709 5709 5710 5710 5713 5715 5718 5721 5722 5722 5724 5725 5727 5730 5731 5731 5731 5732 5734 5732 5736 5739 5740 5740 5740 5740 5737 5735
5739 5735 5732 5729 5726 5723 5721 5718 5716 5715 5714 5711 5710 5709 5708 5708 5707 5706 5705 5705 5706 5707 5710 5715 5717 5718 5719 5720 5723 5723 5724 5722 5724 5726 5726 5729 5728 5732 5734 5735 5736 5727 5721 5725 5726
5735 5731 5728 5726 5723 5720 5717 5715 5714 5714 5711 5709 5706 5706 5704 5703 5703 5702 5702 5702 5702 5702 5703 5706 5709 5711 5714 5716 5718 5716 5719 5719 5721 5722 5720 5727 5725 5728 5730 5727 5719 5718 5715 5719 5719
5731 5726 5723 5722 5720 5716 5714 5712 5712 5710 5710 5707 5704 5701 5700 5699 5699 5698 5698 5699 5699 5700 5701 5702 5704 5705 5707 5709 5711 5712 5713 5714 5716 5717 5717 5722 5716 5722 5719 5715 5716 5710 5712 5710 5708
5727 5722 5719 5716 5716 5713 5710 5709 5707 5706 5705 5703 5702 5700 5700 5701 5700 5699 5697 5696 5696 5696 5695 5696 5699 5700 5701 5702 5706 5708 5710 5709 5707 5710 5711 5711 5711 5713 5713 5708 5703 5704 5702 5703 5700
5721 5718 5714 5712 5710 5709 5708 5705 5703 5701 5702 5701 5700 5698 5697 5696 5697 5695 5694 5692 5692 5692 5690 5690 5693 5694 5696 5698 5699 5702 5702 5702 5700 5701 5700 5705 5708 5707 5704 5694 5689 5690 5685 5682 5676
5715 5713 5710 5706 5705 5704 5704 5702 5699 5697 5696 5697 5695 5695 5694 5692 5692 5688 5687 5687 5687 5685 5683 5684 5686 5689 5690 5689 5693 5693 5695 5694 5694 5691 5692 5696 5696 5700 5691 5684 5681 5679 5677 5673 5669
5709 5707 5704 5700 5699 5699 5698 5696 5694 5691 5691 5691 5689 5689 5688 5687 5685 5684 5682 5681 5680 5679 5678 5678 5677 5685 5681 5683 5686 5686 5686 5686 5684 5684 5684 5686 5689 5689 5679 5677 5675 5675 5671 5667 5660
5704 5700 5698 5696 5694 5693 5691 5691 5690 5686 5684 5684 5683 5682 5682 5681 5680 5679 5677 5674 5674 5673 5673 5671 5672 5675 5675 5677 5677 5678 5678 5679 5676 5678 5676 5675 5678 5675 5674 5672 5668 5666 5660 5653 5649
5698 5695 5693 5690 5688 5687 5686 5685 5682 5681 5678 5677 5677 5677 5675 5675 5674 5672 5671 5668 5666 5667 5665 5667 5667 5667 5670 5672 5671 5670 5671 5671 5670 5669 5670 5669 5669 5669 5665 5664 5662 5651 5647 5644 5639
5691 5690 5688 5684 5682 5680 5679 5677 5675 5675 5672 5671 5670 5670 5670 5667 5665 5665 5663 5661 5660 5659 5660 5660 5661 5662 5663 5665 5664 5663 5662 5663 5664 5663 5663 5660 5659 5661 5660 5656 5647 5641 5639 5636 5630
5683 5683 5681 5678 5675 5674 5672 5671 5668 5666 5667 5665 5663 5664 5663 5661 5658 5656 5654 5653 5651 5652 5653 5653 5656 5655 5656 5658 5656 5657 5656 5658 5658 5657 5654 5654 5653 5654 5648 5641 5638 5633 5628 5624 5619
5673 5674 5674 5671 5668 5666 5665 5664 5662 5660 5659 5657 5658 5656 5654 5653 5652 5648 5646 5644 5644 5643 5645 5646 5649 5648 5649 5649 5649 5649 5651 5652 5651 5650 5648 5646 5645 5643 5638 5636 5631 5626 5620 5613 5605
5664 5663 5663 5664 5662 5660 5657 5656 5655 5653 5652 5652 5651 5649 5647 5645 5643 5640 5638 5636 5636 5637 5638 5640 5641 5641 5642 5642 5641 5644 5645 5645 5643 5643 5639 5638 5637 5634 5634 5629 5622 5616 5609 5602 5595
Wind_Speed
23 23 22 24 22 23 25 28 28 27 25 25 26 26 25 26 25 25 27 28 29 27 31 34 32 32 36 45 50 50 52 58 60 54 57 52 32 36 38 54 55 31 40 45 56
25 24 23 23 23 23 23 22 23 24 24 24 25 26 26 25 25 24 25 25 25 23 26 27 26 23 28 35 40 45 47 50 49 46 33 34 47 25 46 50 48 52 44 46 55
26 25 26 25 23 23 22 22 21 23 23 24 24 25 25 25 24 23 23 24 22 21 21 21 20 18 20 27 34 36 40 39 41 33 29 38 42 44 53 56 50 46 48 47 47
29 30 29 26 24 22 23 22 22 23 23 24 23 24 24 24 23 23 20 21 19 18 16 16 16 16 20 23 29 31 31 32 32 20 39 46 45 45 47 42 44 53 50 45 46
32 30 32 31 30 27 24 22 20 20 21 22 22 22 23 22 20 22 18 17 17 15 12 12 12 13 18 20 25 26 28 31 34 32 42 44 39 39 39 35 39 45 42 48 45
30 32 33 33 31 29 24 21 20 19 20 21 21 21 23 23 19 19 16 15 14 14 11 12 13 13 16 14 14 20 27 31 36 36 35 33 33 37 36 36 35 35 37 39 41
25 24 23 24 28 24 20 19 19 18 17 18 19 20 21 23 20 16 15 14 12 13 12 14 18 19 17 18 20 19 23 28 29 29 30 31 29 30 32 32 33 32 34 36 37
23 20 18 20 18 19 17 21 16 17 15 16 17 21 22 20 20 18 16 13 11 10 15 13 16 20 20 20 23 23 24 24 24 25 27 29 27 26 31 34 34 33 31 33 35
22 20 20 20 21 20 21 21 19 19 17 16 17 18 21 20 18 19 17 15 12 10 12 16 16 19 21 20 19 18 18 18 12 15 28 33 30 26 33 34 33 34 34 34 34
22 22 21 20 20 20 21 21 20 19 18 17 16 15 12 20 20 18 18 17 14 12 10 18 19 17 17 18 14 3 17 11 10 22 29 28 30 27 32 36 39 38 39 40 39
20 22 21 21 20 20 20 21 21 18 14 15 13 13 12 15 21 18 18 17 16 14 11 15 19 20 14 13 19 16 22 22 17 24 29 26 28 28 32 36 36 38 37 40 43
21 19 21 21 20 20 22 22 21 20 17 14 13 16 16 15 17 20 20 17 17 16 13 12 14 17 21 15 22 28 33 35 33 34 31 30 32 29 31 33 34 36 39 40 42
24 25 25 24 23 22 21 20 21 20 20 17 15 13 14 13 12 13 21 22 19 18 15 14 4 10 22 25 25 24 29 28 29 21 26 33 33 31 33 36 38 40 41 43 42
25 26 27 27 25 23 20 19 18 17 18 16 11 13 12 12 12 12 13 19 22 19 17 17 15 14 16 17 16 16 12 19 25 32 30 22 24 20 19 21 25 29 29 31 39
24 26 26 24 21 19 15 14 14 14 12 18 14 15 14 13 10 12 11 12 20 26 19 13 10 19 18 16 11 16 19 25 22 21 23 21 25 19 14 20 14 28 39 44 45
24 24 24 21 19 16 13 11 12 12 8 18 18 14 13 13 12 10 11 11 14 20 23 20 21 23 16 12 17 22 19 21 21 21 26 14 14 8 15 22 34 39 46 46 42
25 23 22 20 18 16 14 11 12 7 12 17 16 16 15 16 19 16 13 10 11 17 17 22 27 27 21 19 22 21 22 21 18 18 20 4 23 15 20 30 39 46 48 48 51
26 23 21 19 18 16 14 13 10 10 15 9 11 12 11 10 16 18 22 20 18 17 21 22 21 21 20 21 21 17 16 23 24 21 24 24 25 22 32 42 48 51 54 52 52
23 21 20 19 18 17 15 14 11 14 11 12 11 11 8 17 17 18 21 22 23 25 26 27 22 21 20 20 27 25 25 24 29 30 31 23 19 15 20 38 43 45 51 47 48
22 20 20 18 18 18 17 15 15 14 15 15 14 12 9 17 20 21 21 22 22 24 28 27 25 22 20 28 26 27 27 30 29 32 28 11 20 13 25 35 43 42 38 40 43
19 19 19 17 17 18 19 19 15 18 14 17 18 16 15 14 17 19 24 23 19 21 23 28 32 25 32 32 29 29 23 22 26 29 30 27 24 20 35 40 40 36 39 40 45
18 21 19 17 17 17 19 17 16 19 18 17 19 19 18 18 18 20 21 25 25 23 23 26 27 27 30 29 29 26 23 23 27 25 28 27 22 18 32 37 35 34 35 36 40
21 19 17 17 17 15 15 22 23 20 22 18 19 20 19 18 22 21 20 26 27 25 27 25 25 24 23 22 21 26 27 29 31 30 28 30 30 21 28 30 31 37 38 40 46
23 24 20 17 17 17 21 21 24 22 22 21 19 20 20 22 25 24 25 26 28 31 25 25 24 25 22 15 20 26 27 25 22 26 27 30 26 21 22 29 36 37 38 42 44
24 23 22 21 18 18 21 23 23 24 23 22 22 20 21 23 25 28 25 27 30 29 27 28 25 26 24 23 31 33 32 29 24 25 29 26 25 26 30 30 32 40 41 43 44
24 24 24 21 18 19 18 21 23 21 22 24 21 21 23 24 25 24 26 26 27 27 26 28 25 27 24 23 25 29 34 31 27 27 29 28 25 30 24 30 35 37 41 43 45
36 24 24 22 19 17 21 20 23 21 21 23 21 21 22 25 25 22 24 26 26 27 25 26 25 27 24 23 25 25 22 20 25 24 27 24 26 26 25 28 34 40 39 42 42
Wind_Direction
305 303 304 303 298 298 292 277 272 273 270 273 275 276 278 279 283 288 295 303 307 304 304 305 286 264 235 221 219 219 218 223 224 225 230 225 230 228 246 231 223 220 216 220 240
303 302 305 306 303 299 298 292 274 270 270 273 276 279 278 280 284 290 297 307 307 299 301 302 285 262 235 218 215 217 220 220 220 221 222 246 233 224 241 241 234 237 234 229 239
303 298 300 303 305 303 299 286 283 278 272 273 273 276 278 279 284 289 300 309 303 297 300 287 278 254 227 213 205 215 224 224 225 224 238 226 236 232 236 241 242 244 239 237 235
302 301 297 296 303 305 301 298 283 279 276 274 274 274 274 277 281 285 295 307 297 295 296 276 265 248 222 205 207 208 215 222 213 223 238 232 238 254 259 260 260 259 251 249 240
295 293 293 289 293 300 300 298 294 282 280 277 276 274 273 273 278 281 291 303 301 289 286 257 240 237 227 214 205 207 210 212 218 199 238 243 246 250 256 257 257 265 267 269 253
303 291 291 286 289 294 294 294 297 287 280 280 274 272 270 270 272 278 285 295 301 273 270 234 220 221 229 230 231 221 216 212 215 229 244 247 242 247 253 254 254 257 260 266 274
317 309 302 295 294 291 284 297 296 295 287 286 279 275 270 268 268 267 274 281 290 267 256 229 216 214 228 227 222 221 216 214 221 226 235 242 239 248 249 252 253 252 252 253 253
324 321 316 315 315 296 284 288 292 295 291 291 289 278 268 265 262 262 263 265 269 274 244 238 223 212 228 234 235 218 212 218 227 231 241 242 242 246 251 249 253 255 254 250 249
324 319 316 320 321 304 298 290 286 288 292 295 294 304 262 256 254 260 257 256 252 260 244 228 219 217 212 226 236 236 238 242 256 270 254 249 248 249 255 252 253 258 257 255 254
325 322 315 311 307 308 306 300 298 294 294 293 297 300 281 260 246 257 254 253 251 245 246 228 222 212 211 215 208 89 308 310 205 272 270 258 256 248 257 260 261 258 256 262 257
328 324 320 310 304 303 301 301 301 302 299 295 300 305 312 273 262 233 244 253 254 245 240 227 223 222 214 212 175 213 209 201 203 225 239 236 247 248 249 255 261 264 261 260 259
324 323 322 315 310 302 299 300 298 298 297 297 300 302 308 300 280 260 229 241 249 249 232 229 224 226 222 220 231 220 209 204 201 216 241 249 254 258 257 262 265 263 265 264 263
328 325 321 312 309 309 300 298 297 292 293 299 296 301 304 301 295 274 258 234 225 242 232 207 135 242 235 236 241 242 234 225 236 243 245 258 260 261 262 264 264 264 263 263 263
322 321 317 313 309 302 299 295 295 297 296 294 301 310 306 299 296 300 295 271 229 230 228 221 195 227 261 234 243 236 240 249 247 247 253 252 262 254 262 265 272 275 270 264 252
323 319 312 313 316 309 306 304 307 307 312 300 311 311 306 295 295 291 297 293 259 225 216 221 251 249 234 245 252 240 218 242 251 262 263 264 278 291 309 307 275 246 256 259 257
321 321 316 314 315 313 307 310 313 316 318 298 305 304 303 300 301 299 292 289 278 243 221 195 206 226 240 242 245 254 254 263 271 273 271 284 298 295 273 218 230 242 257 278 284
316 317 313 312 314 313 305 303 310 314 294 279 299 318 324 323 318 312 299 299 285 262 244 221 218 243 230 247 252 267 278 279 276 272 285 255 256 224 254 248 232 249 261 265 270
312 310 308 306 308 309 308 297 296 282 272 294 292 299 288 251 269 268 291 298 291 273 252 245 245 248 247 246 237 237 234 260 272 250 226 227 250 242 246 251 264 266 268 273 280
308 306 303 302 304 303 300 298 287 279 280 285 291 296 324 296 292 275 281 284 286 270 263 263 262 251 233 235 246 263 269 265 268 270 272 269 258 260 265 259 267 283 296 307 305
302 303 302 300 299 301 295 289 282 276 276 275 277 285 230 256 272 281 286 287 278 273 263 262 266 251 232 249 262 266 270 265 264 269 272 263 235 220 244 253 271 297 302 303 300
300 301 297 301 299 296 297 292 286 287 274 273 272 275 281 274 289 292 292 290 274 270 266 258 261 250 250 256 257 270 266 265 265 260 266 270 258 230 254 257 273 286 283 287 288
296 304 297 295 297 296 300 290 286 289 285 275 269 269 276 284 286 291 287 284 279 279 271 266 263 257 257 257 261 260 255 249 250 256 270 282 287 278 249 264 273 281 279 293 305
287 295 304 303 294 290 269 286 289 286 286 278 269 269 276 284 288 291 287 275 276 276 265 265 267 266 261 263 264 246 257 253 257 266 273 274 286 258 267 279 280 284 296 302 304
278 288 291 295 295 283 283 281 284 282 284 278 271 272 282 286 288 292 288 277 273 269 269 259 261 260 259 237 226 239 254 257 258 263 274 281 284 277 277 275 278 294 306 308 306
272 275 282 299 299 279 282 280 281 286 283 275 276 280 281 285 291 296 293 284 281 270 259 261 261 261 262 254 235 235 256 266 270 273 281 287 276 281 274 287 304 309 310 308 302
265 268 272 284 293 293 285 282 281 282 281 283 281 285 287 292 300 294 289 284 277 271 257 257 260 260 262 263 254 249 253 268 270 275 282 272 277 277 302 313 310 309 310 306 306
271 264 270 277 283 290 293 284 283 280 277 279 285 292 296 301 301 295 290 284 276 263 258 258 258 260 267 264 255 256 264 256 268 274 265 274 279 295 310 311 313 312 310 311 308